EW1423 Weather Reports


Display with metric or nautical units.
time (UTC)temp
F
wind
direction
speed
MPH
gust
MPH
rain 1hr
in
rain 24hr
in
rain mn
in
humidity
%
barometer
mb
20260505130304 57 298 4.0 8.0 0.28 0.28 0.28 95 1008.5
20260505124804 60 315 3.0 9.0 0.11 0.11 0.11 90 1007.7
20260505124303 63 293 3.0 12.0 0.02 0.02 0.02 80 1007.7
20260505123804 67 279 3.0 10.0 0.00 0.00 0.00 67 1007.7
20260505122803 69 43 1.0 3.0 0.00 0.00 0.00 63 1007.5
20260505122305 69 57 0.0 3.0 0.00 0.00 0.00 62 1007.5
20260505121304 69 36 1.0 3.0 0.00 0.00 0.00 64 1007.5
20260505120803 69 36 1.0 5.0 0.00 0.00 0.00 63 1007.5
20260505120311 70 18 0.0 5.0 0.00 0.00 0.00 62 1007.7
20260505115804 70 13 0.0 1.0 0.00 0.00 0.00 64 1007.7
20260505115305 70 11 0.0 2.0 0.00 0.00 0.00 62 1007.7
20260505114803 70 11 1.0 2.0 0.00 0.00 0.00 63 1007.7
20260505114304 69 11 1.0 2.0 0.00 0.00 0.00 63 1007.7
20260505113803 69 3 1.0 5.0 0.00 0.00 0.00 65 1007.7
20260505113303 69 357 2.0 5.0 0.00 0.00 0.00 64 1007.7
20260505112804 68 45 1.0 6.0 0.00 0.00 0.00 66 1007.7
20260505111804 69 329 1.0 3.0 0.00 0.00 0.00 64 1007.7
20260505111303 69 11 2.0 3.0 0.00 0.00 0.00 64 1007.7
20260505110804 69 316 2.0 5.0 0.00 0.00 0.00 64 1007.7
20260505110304 70 327 1.0 3.0 0.00 0.00 0.00 63 1007.7
20260505101803 71 273 1.0 5.0 0.00 0.00 0.00 61 1008.0
20260505101304 70 275 1.0 5.0 0.00 0.00 0.00 60 1008.0
20260505100804 70 330 2.0 5.0 0.00 0.00 0.00 59 1008.0
20260505100303 71 36 2.0 5.0 0.00 0.00 0.00 59 1008.0
20260505095804 72 15 2.0 5.0 0.00 0.00 0.00 57 1008.0
20260505095305 73 351 2.0 5.0 0.00 0.00 0.00 58 1008.1
20260505094804 73 5 1.0 5.0 0.00 0.00 0.00 56 1008.1
20260505094304 73 28 2.0 8.0 0.00 0.00 0.00 54 1008.1
20260505093804 75 51 3.0 7.0 0.00 0.00 0.00 54 1008.1
20260505093303 75 45 1.0 2.0 0.00 0.00 0.00 57 1008.4
20260505092803 74 298 2.0 5.0 0.00 0.00 0.00 58 1008.4
20260505092305 73 313 2.0 3.0 0.00 0.00 0.00 59 1008.4
20260505091804 73 162 1.0 5.0 0.00 0.00 0.00 58 1008.5
20260505090303 70 315 2.0 5.0 0.00 0.00 0.00 62 1008.6
20260505085803 70 304 3.0 5.0 0.00 0.00 0.00 62 1008.6
20260505085305 71 305 1.0 3.0 0.00 0.00 0.00 64 1008.7
20260505084304 71 329 1.0 5.0 0.00 0.00 0.00 63 1009.0
20260505083804 71 315 1.0 2.0 0.00 0.00 0.00 63 1009.0
20260505083303 71 315 1.0 2.0 0.00 0.00 0.00 62 1009.0
20260505082803 70 105 0.0 1.0 0.00 0.00 0.00 65 1009.0
20260505082305 69 105 1.0 2.0 0.00 0.00 0.00 64 1009.0
20260505081804 69 105 1.0 2.0 0.00 0.00 0.00 66 1009.0
20260505080804 68 125 1.0 2.0 0.00 0.00 0.00 67 1009.2
20260505080303 65 40 0.0 2.0 0.00 0.00 0.00 71 1009.2
20260505075804 64 40 1.0 2.0 0.00 0.00 0.00 71 1009.2
20260505075304 64 39 2.0 3.0 0.00 0.00 0.00 71 1009.2
20260505074803 65 288 0.0 2.0 0.00 0.00 0.00 70 1009.2
20260505074303 65 281 0.0 2.0 0.00 0.00 0.00 70 1009.3
20260505073803 64 281 1.0 2.0 0.00 0.00 0.00 70 1009.3
20260505073304 65 281 0.0 1.0 0.00 0.00 0.00 69 1009.3
20260505072804 64 281 0.0 2.0 0.00 0.00 0.00 73 1009.3
20260505072305 63 281 0.0 3.0 0.00 0.00 0.00 73 1009.3
20260505070803 63 168 1.0 2.0 0.00 0.00 0.00 73 1009.4
20260505070304 63 168 1.0 2.0 0.00 0.00 0.00 72 1009.5
20260505065804 63 168 0.0 1.0 0.00 0.00 0.00 74 1009.5
20260505065304 62 168 1.0 2.0 0.00 0.00 0.00 73 1009.8
20260505064804 62 168 0.0 2.0 0.00 0.00 0.00 77 1009.8
20260505064304 61 168 0.0 1.0 0.00 0.00 0.00 76 1009.8
20260505063803 61 168 0.0 1.0 0.00 0.00 0.00 77 1009.8
20260505063303 60 168 0.0 1.0 0.00 0.00 0.00 79 1009.8
20260505062803 59 168 0.0 2.0 0.00 0.00 0.00 81 1009.8
20260505062304 59 168 0.0 1.0 0.00 0.00 0.00 81 1009.8
20260505061304 58 168 0.0 1.0 0.00 0.00 0.00 83 1010.0
20260505060803 57 168 0.0 2.0 0.00 0.00 0.00 83 1010.0
20260505060304 57 168 0.0 1.0 0.00 0.00 0.00 84 1009.9
20260505055803 57 168 0.0 0.0 0.00 0.00 0.00 84 1009.9
20260505055304 56 168 0.0 0.0 0.00 0.00 0.00 85 1009.9
20260505054803 56 168 0.0 1.0 0.00 0.00 0.00 85 1010.1
20260505054304 56 168 0.0 1.0 0.00 0.00 0.00 85 1010.1
20260505053803 56 168 0.0 1.0 0.00 0.00 0.00 85 1010.1
20260505053304 56 168 0.0 1.0 0.00 0.00 0.00 86 1010.1
20260505052304 56 168 0.0 1.0 0.00 0.00 0.00 86 1010.1
20260505051804 56 169 0.0 1.0 0.00 0.00 0.00 87 1010.1
20260505051304 56 169 0.0 1.0 0.00 0.00 0.00 87 1010.1
20260505050305 55 204 1.0 2.0 0.00 0.00 0.00 87 1010.2
20260505041304 53 304 0.0 0.0 0.00 0.00 0.00 90 1010.1
20260505040304 53 304 0.0 1.0 0.00 0.00 0.00 91 1010.1
20260505035804 53 304 0.0 0.0 0.00 0.00 0.00 91 1010.1
20260505035304 53 304 0.0 1.0 0.00 0.00 0.00 92 1010.1
20260505034804 53 304 0.0 0.0 0.00 0.00 0.00 91 1010.1
20260505034303 53 304 0.0 0.0 0.00 0.00 0.00 91 1010.1
20260505033803 53 304 0.0 0.0 0.00 0.00 0.00 91 1010.1
20260505033303 53 304 0.0 0.0 0.00 0.00 0.00 91 1010.4
20260505032304 53 304 0.0 0.0 0.00 0.00 0.00 90 1010.4
20260505031804 54 304 0.0 0.0 0.00 0.00 0.00 89 1010.4
20260505030804 53 304 0.0 1.0 0.00 0.00 0.00 90 1010.5
20260505030303 53 304 0.0 0.0 0.00 0.00 0.00 90 1010.5
20260505024803 53 304 0.0 0.0 0.00 0.00 0.00 91 1010.6
20260505023804 53 304 0.0 0.0 0.00 0.00 0.00 90 1010.6
20260505022304 54 304 0.0 0.0 0.00 0.00 0.00 88 1010.8
20260505021803 54 304 0.0 1.0 0.00 0.00 0.00 87 1010.9
20260505021304 55 304 0.0 1.0 0.00 0.00 0.00 87 1010.9
20260505020804 55 304 0.0 0.0 0.00 0.00 0.00 86 1011.3
20260505020303 56 304 0.0 0.0 0.00 0.00 0.00 86 1011.3
20260505015803 56 304 0.0 1.0 0.00 0.00 0.00 85 1011.3
20260505015304 56 304 0.0 0.0 0.00 0.00 0.00 85 1011.3
20260505014803 56 304 0.0 1.0 0.00 0.00 0.00 85 1011.3
20260505014303 56 304 0.0 1.0 0.00 0.00 0.00 85 1011.3
20260505013804 56 304 0.0 1.0 0.00 0.00 0.00 85 1011.3
20260505013303 56 304 0.0 1.0 0.00 0.00 0.00 85 1011.5
20260505012304 56 304 0.0 0.0 0.00 0.00 0.00 85 1011.5
20260505011804 56 304 0.0 0.0 0.00 0.00 0.00 84 1011.5
20260505011303 56 304 0.0 0.0 0.00 0.00 0.00 83 1011.5
20260505010804 57 304 0.0 0.0 0.00 0.00 0.00 83 1011.5
20260505010303 57 304 0.0 0.0 0.00 0.00 0.00 83 1011.5
20260505005304 57 304 0.0 1.0 0.00 0.00 0.00 83 1011.6
20260505004803 57 304 0.0 1.0 0.00 0.00 0.00 83 1011.7
20260505004304 57 304 0.0 0.0 0.00 0.00 0.00 82 1011.7
20260505003803 57 304 0.0 0.0 0.00 0.00 0.00 82 1011.7
20260505003304 57 304 0.0 0.0 0.00 0.00 0.00 81 1011.7
20260505002803 58 304 0.0 1.0 0.00 0.00 0.00 81 1011.7
20260505002304 58 304 0.0 0.0 0.00 0.00 0.00 80 1011.9
20260505001803 58 304 0.0 0.0 0.00 0.00 0.00 80 1011.9
20260505001303 58 304 0.0 0.0 0.00 0.00 0.00 80 1011.9
20260505000804 58 304 0.0 0.0 0.00 0.00 0.00 80 1011.9
20260505000303 58 304 0.0 0.0 0.00 0.00 0.00 80 1011.9
20260504235803 58 304 0.0 3.0 0.00 0.00 0.00 80 1011.9
20260504235305 58 298 0.0 1.0 0.00 0.00 0.00 80 1011.9
20260504234803 57 298 0.0 1.0 0.00 0.00 0.00 81 1011.9
20260504234303 57 298 0.0 1.0 0.00 0.00 0.00 82 1011.9
20260504233804 57 298 0.0 1.0 0.00 0.00 0.00 81 1011.9
20260504232804 57 298 0.0 1.0 0.00 0.00 0.00 81 1012.0
20260504232304 57 298 0.0 0.0 0.00 0.00 0.00 81 1012.2
20260504231803 57 298 0.0 0.0 0.00 0.00 0.00 81 1012.2
20260504231305 58 298 0.0 0.0 0.00 0.00 0.00 80 1012.2
20260504230803 58 298 0.0 0.0 0.00 0.00 0.00 80 1012.2
20260504230304 58 298 0.0 0.0 0.00 0.00 0.00 79 1012.2
20260504225304 58 298 0.0 0.0 0.00 0.00 0.00 79 1012.3
20260504224804 58 298 0.0 0.0 0.00 0.00 0.00 78 1012.3
20260504224304 58 298 0.0 1.0 0.00 0.00 0.00 79 1012.3
20260504223804 58 298 0.0 0.0 0.00 0.00 0.00 78 1012.4
20260504223304 58 298 0.0 0.0 0.00 0.00 0.00 78 1012.4
20260504222803 59 298 0.0 1.0 0.00 0.00 0.00 77 1012.4
20260504222305 59 298 0.0 0.0 0.00 0.00 0.00 77 1012.4
20260504221804 59 298 0.0 1.0 0.00 0.00 0.00 77 1012.4
20260504221304 59 298 0.0 0.0 0.00 0.00 0.00 77 1012.5
20260504220810 59 298 0.0 0.0 0.00 0.00 0.00 77 1012.5
20260504220303 59 298 0.0 0.0 0.00 0.00 0.00 75 1012.5
20260504215804 60 298 0.0 0.0 0.00 0.00 0.00 75 1012.5
20260504215304 60 298 0.0 0.0 0.00 0.00 0.00 74 1012.5
20260504214303 60 298 0.0 0.0 0.00 0.00 0.00 73 1012.5
20260504213804 60 298 0.0 2.0 0.00 0.00 0.00 73 1012.5
20260504213304 60 297 0.0 0.0 0.00 0.00 0.00 74 1012.5
20260504212803 60 297 0.0 0.0 0.00 0.00 0.00 73 1012.5
20260504212304 60 297 0.0 1.0 0.00 0.00 0.00 72 1012.5
20260504211804 60 297 0.0 0.0 0.00 0.00 0.00 73 1012.5
20260504211304 60 297 0.0 0.0 0.00 0.00 0.00 71 1012.5
20260504210803 60 297 0.0 0.0 0.00 0.00 0.00 72 1012.4
20260504210304 61 297 0.0 0.0 0.00 0.00 0.00 72 1012.4
20260504205803 61 297 0.0 0.0 0.00 0.00 0.00 71 1012.5
20260504205304 61 297 0.0 0.0 0.00 0.00 0.00 70 1012.5
20260504204303 61 297 0.0 0.0 0.00 0.00 0.00 69 1012.6
20260504203803 62 297 0.0 1.0 0.00 0.00 0.00 68 1012.6
20260504203304 62 297 0.0 0.0 0.00 0.00 0.00 68 1012.7
20260504202804 62 297 0.0 1.0 0.00 0.00 0.00 68 1012.7
20260504202305 62 297 0.0 0.0 0.00 0.00 0.00 68 1012.7
20260504201803 62 297 0.0 1.0 0.00 0.00 0.00 68 1012.7
20260504201303 63 297 0.0 2.0 0.00 0.00 0.00 67 1012.9
20260504200803 63 297 0.0 2.0 0.00 0.00 0.00 66 1012.9
20260504200304 63 297 0.0 2.0 0.00 0.00 0.00 66 1012.9
20260504195804 63 297 0.0 2.0 0.00 0.00 0.00 66 1012.9
20260504195304 63 297 1.0 3.0 0.00 0.00 0.00 65 1012.6
20260504194803 63 286 0.0 2.0 0.00 0.00 0.00 66 1012.5
20260504194304 63 286 0.0 2.0 0.00 0.00 0.00 66 1012.5
20260504193304 64 267 0.0 2.0 0.00 0.00 0.00 64 1012.7
20260504192804 64 263 1.0 3.0 0.00 0.00 0.00 63 1012.7
20260504192304 64 276 1.0 5.0 0.00 0.00 0.00 62 1012.6
20260504191804 64 315 1.0 3.0 0.00 0.00 0.00 61 1012.6
20260504191304 64 286 1.0 3.0 0.00 0.00 0.00 60 1012.6
20260504190804 65 5 1.0 2.0 0.00 0.00 0.00 59 1012.6
20260504190303 65 300 1.0 3.0 0.00 0.00 0.00 59 1012.5
20260504185803 65 301 1.0 5.0 0.00 0.00 0.00 58 1012.4
20260504185304 65 302 1.0 5.0 0.00 0.00 0.00 57 1012.4
20260504184804 65 303 1.0 5.0 0.00 0.00 0.00 56 1012.5
20260504184304 66 304 0.0 3.0 0.00 0.00 0.00 56 1012.4
20260504183803 66 300 1.0 3.0 0.00 0.00 0.00 56 1012.3
20260504183303 66 329 1.0 5.0 0.00 0.00 0.00 56 1012.3
20260504182804 66 296 1.0 5.0 0.00 0.00 0.00 56 1012.3
20260504182304 66 313 1.0 3.0 0.00 0.00 0.00 56 1012.3
20260504181804 66 306 1.0 3.0 0.00 0.00 0.00 56 1012.1
20260504181304 67 355 1.0 3.0 0.00 0.00 0.00 55 1012.1
20260504180804 67 281 2.0 5.0 0.00 0.00 0.00 54 1012.1
20260504180304 67 298 2.0 9.0 0.00 0.00 0.00 54 1012.1
20260504175803 68 317 1.0 3.0 0.00 0.00 0.00 54 1012.1
20260504175304 68 313 2.0 7.0 0.00 0.00 0.00 54 1012.0
20260504174804 68 315 2.0 7.0 0.00 0.00 0.00 54 1012.0
20260504174303 68 291 2.0 6.0 0.00 0.00 0.00 54 1011.8
20260504173803 68 293 2.0 7.0 0.00 0.00 0.00 53 1011.8
20260504173304 68 293 1.0 5.0 0.00 0.00 0.00 54 1011.8
20260504172805 68 343 2.0 5.0 0.00 0.00 0.00 54 1011.8
20260504171304 69 295 2.0 5.0 0.00 0.00 0.00 54 1011.8
20260504170804 69 315 1.0 5.0 0.00 0.00 0.00 54 1011.8
20260504170304 69 287 3.0 8.0 0.00 0.00 0.00 52 1011.8
20260504160303 72 277 2.0 5.0 0.00 0.00 0.00 48 1011.8